Weather History for Wahoo, NE

Change the Weather History Date:

Thursday, November 22, 2012

  Actual Average Record
Temperature  
Mean Temperature 50 °F -  
Max Temperature 61 °F 47 °F 66 °F (1990)
Min Temperature 38 °F 24 °F 10 °F (1975)
Degree Days  
Heating Degree Days 16    
Moisture  
Dew Point 37 °F    
Average Humidity 60    
Maximum Humidity 81    
Minimum Humidity 40    
Precipitation  
Precipitation 0.00 in - - ()
Sea Level Pressure  
Sea Level Pressure 29.94 in    
Wind  
Wind Speed 13 mph (WNW)    
Max Wind Speed 28 mph    
Max Gust Speed 39 mph    
Visibility 10 miles    
Events      
Averages and records for this station are not official NWS values.
T = Trace of Precipitation, MM = Missing Value Source: NWS Daily Summary

Daily Weather History Graph

Daily Weather History Graph

Search for Another Location

Airport:

Trip Planner

Search our weather history database for the weather conditions in past years. The results will help you decide how hot, cold, wet, or windy it might be!

Date:

Astronomy

Nov. 22, 2012 Rise Set
Actual Time 7:23 AM CST 5:01 PM CST
Civil Twilight 6:53 AM CST 5:31 PM CST
Nautical Twilight 6:19 AM CST 6:05 PM CST
Astronomical Twilight 5:46 AM CST 6:38 PM CST
Moon 1:50 PM CST (11/22) 1:41 AM CST (11/22)
Length of Visible Light 10h 38m
Length of Day
9h 38m
Waxing Gibbous, 71% of the Moon is Illuminated
Nov 22
Waxing Gibbous
Nov 28
Full
Dec 6
Last Quarter
Dec 13
New
Dec 19
First Quarter

Hourly Weather History & Observations

Time (CST) Temp. Windchill Dew Point Humidity Pressure Visibility Wind Dir Wind Speed Gust Speed Precip Events Conditions
12:15 AM 59.7 °F - 44.6 °F 57% 29.78 in 10.0 mi SSW 15.0 mph 19.6 mph N/A   Clear
12:35 AM 59.2 °F - 44.4 °F 58% 29.77 in 10.0 mi SSW 13.8 mph 19.6 mph N/A   Clear
12:55 AM 58.5 °F - 44.2 °F 59% 29.77 in 10.0 mi SSW 13.8 mph 19.6 mph N/A   Clear
1:15 AM 58.8 °F - 44.4 °F 59% 29.76 in 10.0 mi SSW 13.8 mph 19.6 mph N/A   Clear
1:35 AM 59.0 °F - 44.6 °F 59% 29.75 in 10.0 mi SSW 15.0 mph 21.9 mph N/A   Clear
1:55 AM 58.6 °F - 44.6 °F 60% 29.75 in 10.0 mi SSW 18.4 mph 21.9 mph N/A   Clear
2:15 AM 58.1 °F - 44.6 °F 61% 29.74 in 10.0 mi SSW 15.0 mph - N/A   Clear
2:35 AM 57.2 °F - 44.6 °F 63% 29.74 in 10.0 mi SSW 13.8 mph - N/A   Clear
2:55 AM 55.4 °F - 44.4 °F 67% 29.74 in 10.0 mi SSW 10.4 mph - N/A   Clear
3:15 AM 54.5 °F - 44.1 °F 68% 29.74 in 10.0 mi SSW 8.1 mph - N/A   Clear
3:35 AM 54.3 °F - 44.2 °F 69% 29.73 in 10.0 mi SSW 8.1 mph - N/A   Clear
3:55 AM 53.1 °F - 43.7 °F 71% 29.73 in 10.0 mi SSW 8.1 mph - N/A   Clear
4:15 AM 53.1 °F - 44.1 °F 71% 29.73 in 10.0 mi SSW 9.2 mph - N/A   Clear
4:35 AM 52.9 °F - 43.9 °F 71% 29.73 in 10.0 mi SSW 8.1 mph - N/A   Clear
4:55 AM 50.7 °F - 43.2 °F 75% 29.72 in 10.0 mi SSW 8.1 mph - N/A   Clear
5:15 AM 51.1 °F - 43.3 °F 75% 29.72 in 10.0 mi SSW 6.9 mph - N/A   Clear
5:35 AM 49.5 °F - 42.6 °F 77% 29.72 in 10.0 mi SSW 4.6 mph - N/A   Clear
5:55 AM 49.1 °F - 42.3 °F 77% 29.73 in 10.0 mi SSW 5.8 mph - N/A   Clear
6:15 AM 47.5 °F - 41.9 °F 81% 29.73 in 10.0 mi SW 4.6 mph - N/A   Clear
6:35 AM 47.7 °F - 41.2 °F 78% 29.74 in 10.0 mi South 3.5 mph - N/A   Clear
6:55 AM 47.3 °F - 40.8 °F 78% 29.75 in 10.0 mi SSW 4.6 mph - N/A   Clear
7:15 AM 46.9 °F - 41.0 °F 80% 29.76 in 10.0 mi WSW 8.1 mph - N/A   Clear
7:35 AM 47.7 °F - 41.2 °F 78% 29.76 in 10.0 mi WSW 9.2 mph - N/A   Clear
7:55 AM 47.7 °F - 40.8 °F 77% 29.77 in 10.0 mi West 9.2 mph - N/A   Clear
8:15 AM 47.8 °F - 39.9 °F 74% 29.78 in 10.0 mi WSW 9.2 mph - N/A   Clear
8:35 AM 48.2 °F - 39.4 °F 72% 29.79 in 10.0 mi West 6.9 mph - N/A   Clear
8:55 AM 49.5 °F - 39.2 °F 68% 29.80 in 10.0 mi West 4.6 mph - N/A   Clear
9:15 AM 51.8 °F - 36.9 °F 57% 29.80 in 10.0 mi West 4.6 mph - N/A   Clear
9:35 AM 54.7 °F - 34.3 °F 46% 29.81 in 10.0 mi NW 12.7 mph 16.1 mph N/A   Clear
9:55 AM 55.0 °F - 34.7 °F 46% 29.82 in 10.0 mi NNW 12.7 mph 18.4 mph N/A   Clear
10:15 AM 56.7 °F - 35.1 °F 44% 29.83 in 10.0 mi NW 16.1 mph 19.6 mph N/A   Clear
10:35 AM 58.3 °F - 35.8 °F 43% 29.83 in 10.0 mi NNW 19.6 mph 28.8 mph N/A   Clear
10:55 AM 59.4 °F - 35.8 °F 41% 29.84 in 10.0 mi NNW 16.1 mph 24.2 mph N/A   Clear
11:15 AM 60.3 °F - 36.1 °F 41% 29.85 in 10.0 mi NW 19.6 mph 24.2 mph N/A   Clear
11:35 AM 60.3 °F - 36.9 °F 42% 29.87 in 10.0 mi NW 24.2 mph 35.7 mph N/A   Clear
11:55 AM 61.2 °F - 37.4 °F 41% 29.87 in 10.0 mi NW 20.7 mph 32.2 mph N/A   Clear
12:15 PM 61.3 °F - 37.4 °F 41% 29.87 in 10.0 mi NW 23.0 mph 29.9 mph N/A   Clear
12:35 PM 61.9 °F - 37.0 °F 40% 29.89 in 10.0 mi NNW 25.3 mph 33.4 mph N/A   Clear
12:55 PM 61.3 °F - 36.7 °F 40% 29.90 in 10.0 mi NNW 27.6 mph 35.7 mph N/A   Clear
1:15 PM 59.4 °F - 36.5 °F 43% 29.91 in 10.0 mi NNW 24.2 mph 34.5 mph N/A   Clear
1:35 PM 59.5 °F - 36.9 °F 43% 29.92 in 10.0 mi NNW 24.2 mph 39.1 mph N/A   Clear
1:55 PM 59.0 °F - 37.2 °F 44% 29.93 in 10.0 mi NW 27.6 mph 34.5 mph N/A   Clear
2:15 PM 58.3 °F - 37.6 °F 46% 29.95 in 10.0 mi NNW 27.6 mph 31.1 mph N/A   Scattered Clouds
2:35 PM 57.4 °F - 37.8 °F 48% 29.96 in 10.0 mi NNW 27.6 mph 38.0 mph N/A   Clear
2:55 PM 57.2 °F - 37.9 °F 49% 29.97 in 10.0 mi NNW 25.3 mph 31.1 mph N/A   Mostly Cloudy
3:15 PM 55.4 °F - 37.8 °F 52% 30.00 in 10.0 mi NNW 24.2 mph 35.7 mph N/A   Mostly Cloudy
3:35 PM 56.5 °F - 38.3 °F 51% 30.02 in 10.0 mi NNW 23.0 mph 32.2 mph N/A   Overcast
3:55 PM 54.7 °F - 36.1 °F 50% 30.04 in 10.0 mi NNW 25.3 mph 36.8 mph N/A   Mostly Cloudy
4:15 PM 53.2 °F - 34.7 °F 49% 30.05 in 10.0 mi NNW 20.7 mph 33.4 mph N/A   Scattered Clouds
4:35 PM 52.3 °F - 34.3 °F 50% 30.07 in 10.0 mi NNW 18.4 mph 25.3 mph N/A   Clear
4:55 PM 51.1 °F - 33.8 °F 52% 30.09 in 10.0 mi NW 15.0 mph 20.7 mph N/A   Clear
5:15 PM 50.0 °F - 33.3 °F 53% 30.10 in 10.0 mi NW 10.4 mph - N/A   Mostly Cloudy
5:35 PM 49.1 °F - 32.5 °F 53% 30.11 in 10.0 mi NNW 13.8 mph 17.3 mph N/A   Scattered Clouds
5:55 PM 47.7 °F - 31.6 °F 54% 30.13 in 10.0 mi NNW 10.4 mph - N/A   Clear
6:15 PM 45.7 °F 42.0 °F 31.1 °F 57% 30.13 in 10.0 mi NW 6.9 mph - N/A   Clear
6:35 PM 41.9 °F 39.0 °F 30.7 °F 65% 30.15 in 10.0 mi NW 4.6 mph - N/A   Clear
6:55 PM 41.5 °F 37.8 °F 30.2 °F 64% 30.15 in 10.0 mi WNW 5.8 mph - N/A   Clear
7:15 PM 41.2 °F 36.6 °F 30.9 °F 67% 30.16 in 10.0 mi NW 6.9 mph - N/A   Clear
7:35 PM 39.7 °F 34.9 °F 30.4 °F 69% 30.17 in 10.0 mi NW 6.9 mph - N/A   Clear
7:55 PM 39.4 °F 35.2 °F 30.7 °F 71% 30.19 in 10.0 mi NW 5.8 mph - N/A   Clear
8:15 PM 38.7 °F 32.4 °F 30.6 °F 73% 30.20 in 10.0 mi NW 9.2 mph - N/A   Clear
8:35 PM 39.9 °F 33.4 °F 30.4 °F 69% 30.21 in 10.0 mi NW 10.4 mph - N/A   Clear
8:55 PM 41.4 °F 34.3 °F 30.4 °F 65% 30.22 in 10.0 mi NW 12.7 mph 19.6 mph N/A   Clear
9:15 PM 41.5 °F 35.0 °F 30.9 °F 66% 30.22 in 10.0 mi NW 11.5 mph 16.1 mph N/A   Clear
9:35 PM 42.6 °F 37.2 °F 31.3 °F 64% 30.23 in 10.0 mi WNW 9.2 mph - N/A   Clear
9:55 PM 40.6 °F 35.4 °F 30.9 °F 68% 30.24 in 10.0 mi WNW 8.1 mph - N/A   Clear
10:15 PM 38.7 °F 32.4 °F 30.2 °F 72% 30.24 in 10.0 mi NW 9.2 mph - N/A   Clear
10:35 PM 39.4 °F 33.8 °F 31.1 °F 72% 30.23 in 10.0 mi WNW 8.1 mph - N/A   Clear
10:55 PM 40.1 °F 32.0 °F 31.5 °F 71% 30.24 in 10.0 mi West 15.0 mph - N/A   Clear
11:15 PM 42.4 °F 33.5 °F 29.3 °F 60% 30.24 in 10.0 mi WNW 20.7 mph 27.6 mph N/A   Clear
11:35 PM 41.9 °F 32.8 °F 28.6 °F 59% 30.24 in 10.0 mi WNW 20.7 mph 26.5 mph N/A   Clear
11:55 PM 41.5 °F 31.2 °F 27.0 °F 56% 30.24 in 10.0 mi WNW 26.5 mph 35.7 mph N/A   Clear